Lid_Strength_Index
9 11 13 11 11 11 12 13 13 12 10 11 12 12 10 8 7 8 8 7 7 9 7 3 3 3 3 2 3 3 2 2 3 3 4 3 3 3 2 2 1 0 0 0
11 13 10 8 10 11 11 13 13 12 10 12 12 12 10 9 8 7 7 7 7 6 5 4 4 4 4 3 3 2 3 2 3 3 2 2 3 2 2 2 1 1 1 0
12 10 8 9 11 11 12 13 13 13 11 11 12 14 12 9 8 7 7 7 6 6 6 5 5 5 4 4 3 3 3 3 3 3 3 3 3 4 3 3 2 1 1 0
10 8 9 10 11 11 14 11 11 11 13 16 12 18 13 11 10 8 7 7 7 6 5 5 5 5 5 4 4 4 4 4 2 3 4 4 5 5 4 3 2 2 1 1
10 10 10 11 10 10 12 10 11 11 14 16 14 16 14 11 11 9 8 7 6 6 6 5 4 4 4 3 3 3 4 4 4 4 3 4 5 4 3 3 4 3 2 1
10 8 9 10 9 9 9 11 13 14 15 18 15 14 15 12 11 10 8 7 6 6 6 5 5 4 3 2 2 2 2 2 3 3 3 3 3 4 4 4 4 4 3 2
11 10 9 8 11 10 12 15 19 19 19 18 14 14 14 10 9 8 8 7 6 6 6 6 5 5 4 3 2 2 2 2 2 3 3 2 2 3 4 4 5 5 4 3
14 14 10 9 11 12 13 14 18 20 20 17 13 16 14 9 8 7 7 7 7 6 6 5 5 5 5 3 3 3 3 2 1 2 2 2 3 3 3 4 4 4 4 3
14 13 9 9 9 10 12 14 12 15 16 18 16 13 10 9 9 9 8 7 7 7 6 6 4 4 3 3 4 4 3 3 3 3 2 2 2 4 4 4 4 4 4 3
12 15 10 8 9 9 10 10 15 15 20 21 17 16 15 11 10 9 9 8 8 7 6 5 5 5 4 4 5 4 4 4 4 4 4 3 4 4 3 3 3 4 3 3
12 14 13 10 11 12 12 13 13 14 15 19 20 17 11 11 10 10 9 8 8 7 7 7 5 5 4 5 5 4 4 5 4 4 4 4 4 4 3 4 4 3 3 3
11 13 15 13 10 9 10 12 13 17 17 15 17 16 9 9 8 9 8 7 7 7 7 6 6 6 5 5 5 5 4 4 4 4 4 4 4 4 4 4 4 4 4 3
11 16 19 16 13 10 12 11 11 13 15 16 19 17 8 8 8 8 8 7 7 7 6 6 6 6 6 6 5 4 4 4 4 3 4 4 5 5 5 6 5 4 4 4
8 14 15 17 14 12 13 11 11 12 19 16 16 14 11 9 9 8 7 7 7 6 6 5 6 7 6 4 4 5 5 4 4 4 5 6 6 6 6 6 6 5 4 4
11 14 13 12 11 11 11 12 12 13 13 16 14 14 11 10 9 8 7 7 6 6 5 5 6 5 5 5 6 6 7 6 6 7 7 7 7 7 6 7 6 5 5 4
11 15 13 14 11 11 12 11 11 11 12 12 12 13 9 8 8 7 7 6 6 6 5 5 5 6 7 8 9 8 8 8 7 7 8 7 7 7 7 7 6 6 5 5
12 13 15 16 12 12 15 12 12 12 11 12 15 11 9 8 8 8 7 6 6 6 5 5 7 8 8 8 8 9 9 9 8 8 8 7 7 6 6 6 5 6 6 7
13 13 13 16 14 20 13 9 9 10 10 9 10 9 8 8 7 6 6 6 6 6 7 8 9 9 8 8 8 8 8 8 9 9 8 8 7 7 6 5 5 5 7 8
11 12 15 17 17 13 13 11 12 13 12 9 10 9 8 7 7 7 6 6 6 6 8 9 9 9 8 8 7 7 8 8 9 9 8 8 7 7 6 7 7 6 6 8
10 11 14 16 19 19 13 9 7 8 15 8 8 8 8 8 12 9 5 5 6 8 9 9 9 8 8 8 7 8 8 8 9 9 8 8 7 7 7 7 7 6 8 7
14 15 16 17 17 14 9 8 7 15 13 9 8 7 8 9 8 6 5 6 7 9 9 9 8 8 8 7 7 8 8 9 8 8 8 8 8 7 7 7 8 7 7 7
15 18 18 17 18 18 7 8 12 10 8 8 8 7 7 6 6 6 7 8 9 10 9 8 9 8 8 7 8 8 8 7 7 8 8 8 8 8 7 7 7 7 7 7
16 14 16 14 15 10 8 8 7 7 8 8 7 6 7 7 7 7 8 9 10 9 9 8 8 8 8 7 7 8 7 7 7 8 8 8 8 8 6 7 7 8 7 7
12 11 12 12 11 9 8 7 6 6 7 6 5 6 7 8 8 9 9 10 10 9 9 8 8 9 9 8 7 7 6 6 7 8 8 8 8 8 6 6 6 7 6 7
11 11 12 12 10 9 8 7 6 6 6 6 5 6 7 8 9 10 10 10 9 9 9 8 9 9 8 7 6 5 5 6 7 8 8 8 8 8 8 9 10 6 6 6
10 11 13 14 10 10 9 7 6 6 6 6 7 8 8 9 10 10 10 9 9 9 9 9 8 8 8 7 5 5 5 6 7 8 8 8 8 7 7 8 9 10 11 10